Millville, NJ

1:25 PM EST on December 04, 2016 (GMT -0500)
Millville Municipal

Weather History for KMIV - November, 2013

Change the Weather History Date:

Tuesday, November 19, 2013

  Actual Average Record
Temperature  
Mean Temperature 39 °F -  
Max Temperature 50 °F 54 °F 71 °F (1985)
Min Temperature 28 °F 35 °F 19 °F (2005)
Degree Days  
Heating Degree Days 26    
Moisture  
Dew Point 25 °F    
Average Humidity 49    
Maximum Humidity 81    
Minimum Humidity 39    
Precipitation  
Precipitation 0.00 in - - ()
Sea Level Pressure  
Sea Level Pressure 30.12 in    
Wind  
Wind Speed 13 mph (NW)    
Max Wind Speed 21 mph    
Max Gust Speed 31 mph    
Visibility 10 miles    
Events      
Averages and records for this station are not official NWS values.
T = Trace of Precipitation, MM = Missing Value Source: NWS Daily Summary

Daily Weather History Graph

Daily Weather History Graph

Search for Another Location

Airport or City:

Trip Planner

Search our weather history database for the weather conditions in past years. The results will help you decide how hot, cold, wet, or windy it might be!

Date:

Astronomy

Nov. 19, 2013 Rise Set
Actual Time 6:48 AM EST 4:42 PM EST
Civil Twilight 6:19 AM EST 5:11 PM EST
Nautical Twilight 5:47 AM EST 5:44 PM EST
Astronomical Twilight 5:15 AM EST 6:16 PM EST
Moon 6:31 PM EST (11/19) 8:25 AM EST (11/19)
Length of Visible Light 10h 51m
Length of Day
9h 53m
Waning Gibbous, 96% of the Moon is Illuminated
Nov 19
Waning Gibbous
Nov 25
Last Quarter
Dec 2
New
Dec 9
First Quarter
Dec 17
Full

Hourly Weather History & Observations

Time (EST) Temp. Windchill Dew Point Humidity Pressure Visibility Wind Dir Wind Speed Gust Speed Precip Events Conditions
12:54 AM 50.0 °F - 26.1 °F 39% 29.88 in 10.0 mi NW 15.0 mph 21.9 mph N/A   Clear
1:54 AM 46.9 °F - 25.0 °F 42% 29.89 in 10.0 mi WNW 13.8 mph 24.2 mph N/A   Clear
2:54 AM 46.0 °F 40.6 °F 25.0 °F 44% 29.91 in 10.0 mi NW 11.5 mph 20.7 mph N/A   Clear
3:54 AM 45.0 °F 38.9 °F 26.1 °F 48% 29.93 in 10.0 mi WNW 12.7 mph - N/A   Clear
4:54 AM 45.0 °F 37.9 °F 27.0 °F 49% 29.95 in 10.0 mi WNW 16.1 mph 29.9 mph N/A   Clear
5:54 AM 44.1 °F 35.7 °F 26.1 °F 49% 30.00 in 10.0 mi NNW 20.7 mph 31.1 mph N/A   Scattered Clouds
6:54 AM 42.1 °F 36.6 °F 24.1 °F 49% 30.04 in 10.0 mi NW 9.2 mph 18.4 mph N/A   Clear
7:54 AM 43.0 °F 36.8 °F 25.0 °F 49% 30.07 in 10.0 mi NW 11.5 mph 17.3 mph N/A   Clear
8:54 AM 45.0 °F 38.5 °F 25.0 °F 46% 30.09 in 10.0 mi WNW 13.8 mph 21.9 mph N/A   Clear
9:54 AM 46.9 °F - 25.0 °F 42% 30.11 in 10.0 mi NNW 17.3 mph 27.6 mph N/A   Clear
10:54 AM 48.9 °F - 26.1 °F 41% 30.11 in 10.0 mi NNW 19.6 mph 26.5 mph N/A   Clear
11:54 AM 48.0 °F - 26.1 °F 42% 30.11 in 10.0 mi NNW 19.6 mph 31.1 mph N/A   Unknown
12:54 PM 50.0 °F - 27.0 °F 41% 30.10 in 10.0 mi NNW 18.4 mph 26.5 mph N/A   Clear
1:54 PM 50.0 °F - 27.0 °F 41% 30.10 in 10.0 mi NNW 13.8 mph 23.0 mph N/A   Clear
2:54 PM 48.9 °F - 26.1 °F 41% 30.13 in 10.0 mi NNW 12.7 mph 24.2 mph N/A   Unknown
3:54 PM 48.0 °F - 25.0 °F 41% 30.16 in 10.0 mi NNW 10.4 mph 17.3 mph N/A   Clear
4:54 PM 45.0 °F 40.6 °F 25.0 °F 46% 30.18 in 10.0 mi NNW 8.1 mph - N/A   Clear
5:54 PM 42.1 °F 37.1 °F 24.1 °F 49% 30.22 in 10.0 mi NNW 8.1 mph - N/A   Clear
6:54 PM 41.0 °F 38.0 °F 24.1 °F 51% 30.25 in 10.0 mi NNW 4.6 mph - N/A   Clear
7:54 PM 39.9 °F 34.5 °F 23.0 °F 51% 30.28 in 10.0 mi NNW 8.1 mph - N/A   Clear
8:54 PM 36.0 °F 32.1 °F 23.0 °F 59% 30.30 in 10.0 mi NNW 4.6 mph - N/A   Clear
9:54 PM 35.1 °F 31.0 °F 23.0 °F 61% 30.32 in 10.0 mi NW 4.6 mph - N/A   Clear
10:54 PM 28.0 °F - 23.0 °F 81% 30.35 in 10.0 mi Calm Calm - N/A   Clear
11:54 PM 28.9 °F 23.9 °F 21.9 °F 75% 30.36 in 10.0 mi NW 4.6 mph - N/A   Clear